H1 CPF 2 NER 2022 3 9 9 068 01 glonass134 H2 1407501 9134 40315 2022 3 9 0 0 0 2022 3 12 23 45 0 900 1 1 0 0 0 1 H9 10 0 59647 0.00000 0 12172605.267 11486779.741 -19264368.817 10 0 59647 900.00000 0 12771661.704 13665379.550 -17367905.402 10 0 59647 1800.00000 0 13445063.345 15553892.297 -15134752.126 10 0 59647 2700.00000 0 14142352.275 17117485.900 -12608353.100 10 0 59647 3600.00000 0 14808910.029 18333159.520 -9837774.867 10 0 59647 4500.00000 0 15388380.608 19190462.562 -6876754.035 10 0 59647 5400.00000 0 15825178.707 19691701.290 -3782659.167 10 0 59647 6300.00000 0 16066978.188 19851626.737 -615386.651 10 0 59647 7200.00000 0 16067076.970 19696618.832 2563788.595 10 0 59647 8100.00000 0 15786539.748 19263402.273 5693386.206 10 0 59647 9000.00000 0 15196029.280 18597348.728 8712895.524 10 0 59647 9900.00000 0 14277249.859 17750436.732 11563931.154 10 0 59647 10800.00000 0 13023942.478 16778954.495 14191347.813 10 0 59647 11700.00000 0 11442389.584 15741041.164 16544294.172 10 0 59647 12600.00000 0 9551407.293 14694168.608 18577186.429 10 0 59647 13500.00000 0 7381823.784 13692668.160 20250583.888 10 0 59647 14400.00000 0 4975463.500 12785404.844 21531950.450 10 0 59647 15300.00000 0 2383676.981 12013695.766 22396287.750 10 0 59647 16200.00000 0 -334525.288 11409559.422 22826627.858 10 0 59647 17100.00000 0 -3114660.309 10994369.307 22814375.650 10 0 59647 18000.00000 0 -5889192.983 10777968.889 22359493.417 10 0 59647 18900.00000 0 -8590091.304 10758286.069 21470522.884 10 0 59647 19800.00000 0 -11151411.995 10921464.820 20164442.564 10 0 59647 20700.00000 0 -13511810.102 11242510.177 18466361.334 10 0 59647 21600.00000 0 -15616868.625 11686421.185 16409052.186 10 0 59647 22500.00000 0 -17421150.883 12209765.682 14032333.262 10 0 59647 23400.00000 0 -18889889.139 12762631.624 11382306.608 10 0 59647 24300.00000 0 -20000237.792 13290873.178 8510468.230 10 0 59647 25200.00000 0 -20742037.452 13738556.476 5472706.106 10 0 59647 26100.00000 0 -21118056.626 14050500.685 2328205.761 10 0 59647 27000.00000 0 -21143700.174 14174805.266 -861714.625 10 0 59647 27900.00000 0 -20846196.556 14065254.287 -4034815.650 10 0 59647 28800.00000 0 -20263298.514 13683493.534 -7129169.196 10 0 59647 29700.00000 0 -19441553.075 13000885.768 -10084386.006 10 0 59647 30600.00000 0 -18434215.505 11999963.261 -12842812.355 10 0 59647 31500.00000 0 -17298897.274 10675414.298 -15350670.384 10 0 59647 32400.00000 0 -16095049.498 9034560.562 -17559118.364 10 0 59647 33300.00000 0 -14881390.084 7097304.424 -19425209.061 10 0 59647 34200.00000 0 -13713384.836 4895548.154 -20912726.904 10 0 59647 35100.00000 0 -12640889.827 2472109.641 -21992887.736 10 0 59647 36000.00000 0 -11706054.765 -120819.405 -22644888.093 10 0 59647 36900.00000 0 -10941575.348 -2823607.488 -22856294.348 10 0 59647 37800.00000 0 -10369367.072 -5571428.194 -22623265.575 10 0 59647 38700.00000 0 -9999714.601 -8296721.911 -21950607.383 10 0 59647 39600.00000 0 -9830930.419 -10931771.701 -20851657.317 10 0 59647 40500.00000 0 -9849534.763 -13411286.617 -19348005.654 10 0 59647 41400.00000 0 -10030946.956 -15674885.959 -17469058.354 10 0 59647 42300.00000 0 -10340656.953 -17669382.506 -15251451.859 10 0 59647 43200.00000 0 -10735826.046 -19350771.662 -12738331.871 10 0 59647 44100.00000 0 -11167248.078 -20685845.910 -9978510.622 10 0 59647 45000.00000 0 -11581587.887 -21653369.631 -7025519.207 10 0 59647 45900.00000 0 -11923802.454 -22244767.718 -3936573.254 10 0 59647 46800.00000 0 -12139643.081 -22464301.463 -771471.565 10 0 59647 47700.00000 0 -12178133.749 -22328726.236 2408551.455 10 0 59647 48600.00000 0 -11993922.125 -21866446.770 5541998.205 10 0 59647 49500.00000 0 -11549405.011 -21116206.310 8568283.455 10 0 59647 50400.00000 0 -10816539.536 -20125364.870 11428891.347 10 0 59647 51300.00000 0 -9778264.234 -18947838.519 14068492.706 10 0 59647 52200.00000 0 -8429470.213 -17641785.271 16436002.333 10 0 59647 53100.00000 0 -6777480.987 -16267133.474 18485556.907 10 0 59647 54000.00000 0 -4842019.500 -14883054.860 20177395.764 10 0 59647 54900.00000 0 -2654661.759 -13545486.694 21478628.318 10 0 59647 55800.00000 0 -257797.465 -12304805.526 22363873.806 10 0 59647 56700.00000 0 2296861.886 -11203748.967 22815761.136 10 0 59647 57600.00000 0 4950168.332 -10275671.948 22825278.855 10 0 59647 58500.00000 0 7637740.634 -9543210.462 22391967.646 10 0 59647 59400.00000 0 10292396.393 -9017409.254 21523950.424 10 0 59647 60300.00000 0 12846714.147 -8697350.962 20237797.792 10 0 59647 61200.00000 0 15235620.296 -8570303.553 18558229.591 10 0 59647 62100.00000 0 17398893.991 -8612381.297 16517656.356 10 0 59647 63000.00000 0 19283485.627 -8789692.803 14155567.613 10 0 59647 63900.00000 0 20845551.481 -9059928.888 11517777.301 10 0 59647 64800.00000 0 22052118.367 -9374323.874 8655539.758 10 0 59647 65700.00000 0 22882307.190 -9679907.441 5624552.766 10 0 59647 66600.00000 0 23328062.599 -9921951.134 2483867.148 10 0 59647 67500.00000 0 23394356.927 -10046504.547 -705275.234 10 0 59647 68400.00000 0 23098859.086 -10002911.813 -3880651.200 10 0 59647 69300.00000 0 22471082.169 -9746199.414 -6980288.345 10 0 59647 70200.00000 0 21551046.240 -9239231.602 -9943693.472 10 0 59647 71100.00000 0 20387513.828 -8454539.649 -12713051.374 10 0 59647 72000.00000 0 19035874.168 -7375745.341 -15234368.551 10 0 59647 72900.00000 0 17555767.403 -5998516.780 -17458537.933 10 0 59647 73800.00000 0 16008550.820 -4331014.927 -19342302.758 10 0 59647 74700.00000 0 14454715.695 -2393811.500 -20849100.101 10 0 59647 75600.00000 0 12951364.803 -219281.570 -21949767.708 10 0 59647 76500.00000 0 11549857.347 2149503.366 -22623100.896 10 0 59647 77400.00000 0 10293720.313 4660334.782 -22856249.696 10 0 59647 78300.00000 0 9216913.097 7253813.178 -22644949.934 10 0 59647 79200.00000 0 8342516.749 9865599.011 -21993585.320 10 0 59647 80100.00000 0 7681900.766 12428874.259 -20915080.996 10 0 59647 81000.00000 0 7234399.883 14876912.223 -19430632.224 10 0 59647 81900.00000 0 6987511.800 17145649.170 -17569274.840 10 0 59647 82800.00000 0 6917604.949 19176151.671 -15367307.002 10 0 59647 83700.00000 0 6991104.243 20916878.485 -12867574.297 10 0 59647 84600.00000 0 7166103.040 22325644.592 -10118632.566 10 0 59647 85500.00000 0 7394332.156 23371207.529 -7173804.978 10 0 59648 0.00000 0 7623402.211 24034412.015 -4090151.775 10 0 59648 900.00000 0 7799224.758 24308847.454 -927370.629 10 0 59648 1800.00000 0 7868510.104 24200991.853 2253347.446 10 0 59648 2700.00000 0 7781237.588 23729838.813 5390490.861 10 0 59648 3600.00000 0 7492994.650 22926023.224 8423403.038 10 0 59648 4500.00000 0 6967087.078 21830483.070 11293440.790 10 0 59648 5400.00000 0 6176332.121 20492713.205 13945094.028 10 0 59648 6300.00000 0 5104459.180 18968683.458 16327046.432 10 0 59648 7200.00000 0 3747058.941 17318507.119 18393157.681 10 0 59648 8100.00000 0 2112040.095 15603955.914 20103349.372 10 0 59648 9000.00000 0 219572.858 13885923.789 21424378.365 10 0 59648 9900.00000 0 -1898480.501 12221944.040 22330483.092 10 0 59648 10800.00000 0 -4199627.109 10663862.178 22803890.508 10 0 59648 11700.00000 0 -6632255.633 9255760.812 22835173.610 10 0 59648 12600.00000 0 -9137539.119 8032222.779 22423451.779 10 0 59648 13500.00000 0 -11651652.224 7017005.096 21576428.900 10 0 59648 14400.00000 0 -14108213.016 6222179.676 20310266.891 10 0 59648 15300.00000 0 -16440849.501 5647777.684 18649295.222 10 0 59648 16200.00000 0 -18585785.102 5281953.505 16625560.093 10 0 59648 17100.00000 0 -20484335.668 5101662.595 14278220.054 10 0 59648 18000.00000 0 -22085213.248 5073825.704 11652798.172 10 0 59648 18900.00000 0 -23346539.317 5156931.036 8800304.052 10 0 59648 19800.00000 0 -24237481.647 5303006.824 5776242.022 10 0 59648 20700.00000 0 -24739444.477 5459880.471 2639524.862 10 0 59648 21600.00000 0 -24846760.377 5573627.445 -548685.206 10 0 59648 22500.00000 0 -24566853.494 5591104.441 -3726184.497 10 0 59648 23400.00000 0 -23919866.492 5462457.239 -6830959.459 10 0 59648 24300.00000 0 -22937766.865 5143494.424 -9802415.945 10 0 59648 25200.00000 0 -21662970.846 4597823.842 -12582580.075 10 0 59648 26100.00000 0 -20146544.092 3798658.917 -15117245.254 10 0 59648 27000.00000 0 -18446056.602 2730216.455 -17357041.326 10 0 59648 27900.00000 0 -16623183.969 1388645.299 -19258403.880 10 0 59648 28800.00000 0 -14741157.737 -217554.158 -20784424.094 10 0 59648 29700.00000 0 -12862173.477 -2067637.687 -21905562.604 10 0 59648 30600.00000 0 -11044866.349 -4129247.511 -22600214.012 10 0 59648 31500.00000 0 -9341960.383 -6359538.186 -22855112.040 10 0 59648 32400.00000 0 -7798189.466 -8706750.324 -22665568.832 10 0 59648 33300.00000 0 -6448575.872 -11112165.678 -22035545.352 10 0 59648 34200.00000 0 -5317136.526 -13512361.405 -20977553.126 10 0 59648 35100.00000 0 -4416068.672 -15841669.275 -19512390.867 10 0 59648 36000.00000 0 -3745446.297 -18034737.529 -17668722.479 10 0 59648 36900.00000 0 -3293437.135 -20029089.163 -15482505.823 10 0 59648 37800.00000 0 -3037028.406 -21767571.140 -12996284.206 10 0 59648 38700.00000 0 -2943228.357 -23200593.864 -10258354.826 10 0 59648 39600.00000 0 -2970691.209 -24288069.193 -7321830.619 10 0 59648 40500.00000 0 -3071695.756 -25000968.020 -4243613.572 10 0 59648 41400.00000 0 -3194393.574 -25322434.251 -1083299.055 10 0 59648 42300.00000 0 -3285231.946 -25248410.304 2097968.133 10 0 59648 43200.00000 0 -3291449.687 -24787749.466 5238664.655 10 0 59648 44100.00000 0 -3163541.253 -23961811.339 8278064.829 10 0 59648 45000.00000 0 -2857586.090 -22803557.818 11157400.351 10 0 59648 45900.00000 0 -2337345.761 -21356187.344 13820982.394 10 0 59648 46800.00000 0 -1576041.012 -19671363.916 16217265.619 10 0 59648 47700.00000 0 -557734.093 -17807113.818 18299834.670 10 0 59648 48600.00000 0 721742.333 -15825476.470 20028295.190 10 0 59648 49500.00000 0 2254349.852 -13790005.760 21369053.035 10 0 59648 50400.00000 0 4019922.592 -11763224.453 22295967.088 10 0 59648 51300.00000 0 5986758.282 -9804136.203 22790863.312 10 0 59648 52200.00000 0 8112700.258 -7965897.573 22843899.782 10 0 59648 53100.00000 0 10346668.202 -6293746.287 22453774.886 10 0 59648 54000.00000 0 12630576.829 -4823271.658 21627773.475 10 0 59648 54900.00000 0 14901565.241 -3579099.418 20381648.470 10 0 59648 55800.00000 0 17094446.148 -2574046.464 18739338.373 10 0 59648 56700.00000 0 19144274.307 -1808781.645 16732524.156 10 0 59648 57600.00000 0 20988927.694 -1272007.741 14400032.194 10 0 59648 58500.00000 0 22571593.355 -941157.932 11787093.179 10 0 59648 59400.00000 0 23843053.079 -783578.085 8944470.145 10 0 59648 60300.00000 0 24763671.685 -758145.234 5927471.807 10 0 59648 61200.00000 0 25305002.641 -817253.610 2794870.434 10 0 59648 62100.00000 0 25450941.693 -909083.282 -392254.128 10 0 59648 63000.00000 0 25198378.265 -980053.779 -3571720.602 10 0 59648 63900.00000 0 24557315.891 -977356.700 -6681477.298 10 0 59648 64800.00000 0 23550455.942 -851457.541 -9660832.094 10 0 59648 65700.00000 0 22212262.119 -558458.103 -12451655.298 10 0 59648 66600.00000 0 20587545.787 -62216.990 -14999529.887 10 0 59648 67500.00000 0 18729632.875 663863.809 -17254825.051 10 0 59648 68400.00000 0 16698190.980 1635463.498 -19173670.908 10 0 59648 69300.00000 0 14556809.723 2856437.451 -20718814.668 10 0 59648 70200.00000 0 12370437.421 4318421.302 -21860341.545 10 0 59648 71100.00000 0 10202782.697 6000960.906 -22576246.867 10 0 59648 72000.00000 0 8113790.474 7872162.235 -22852849.224 10 0 59648 72900.00000 0 6157297.822 9889833.326 -22685037.984 10 0 59648 73800.00000 0 4378966.690 12003069.669 -22076351.943 10 0 59648 74700.00000 0 2814578.394 14154215.970 -21038889.241 10 0 59648 75600.00000 0 1488758.765 16281121.824 -19593051.892 10 0 59648 76500.00000 0 414184.542 18319596.974 -17767131.315 10 0 59648 77400.00000 0 -408698.791 20205963.839 -15596744.119 10 0 59648 78300.00000 0 -991438.924 21879601.488 -13124129.953 10 0 59648 79200.00000 0 -1356831.241 23285375.912 -10397325.593 10 0 59648 80100.00000 0 -1537699.589 24375856.461 -7469231.579 10 0 59648 81000.00000 0 -1575256.463 25113227.460 -4396589.419 10 0 59648 81900.00000 0 -1517112.852 25470816.746 -1238888.816 10 0 59648 82800.00000 0 -1415022.152 25434178.779 1942774.397 10 0 59648 83700.00000 0 -1322453.289 25001688.357 5086868.322 10 0 59648 84600.00000 0 -1292094.951 24184621.070 8132601.412 10 0 59648 85500.00000 0 -1373395.415 23006717.618 11021083.485 10 0 59649 0.00000 0 -1610240.854 21503250.351 13696449.895 10 0 59649 900.00000 0 -2038869.379 19719629.558 16106929.783 10 0 59649 1800.00000 0 -2686107.873 17709608.764 18205835.334 10 0 59649 2700.00000 0 -3568006.289 15533159.723 19952458.845 10 0 59649 3600.00000 0 -4688927.153 13254105.868 21312857.494 10 0 59649 4500.00000 0 -6041129.946 10937610.200 22260512.646 10 0 59649 5400.00000 0 -7604869.661 8647620.494 22776850.929 10 0 59649 6300.00000 0 -9349007.974 6444376.470 22851616.732 10 0 59649 7200.00000 0 -11232114.229 4382081.502 22483088.203 10 0 59649 8100.00000 0 -13204013.212 2506834.929 21678131.367 10 0 59649 9000.00000 0 -15207717.917 854910.771 20452089.790 10 0 59649 9900.00000 0 -17181668.941 -548545.152 18828510.026 10 0 59649 10800.00000 0 -19062188.838 -1690344.808 16838706.254 10 0 59649 11700.00000 0 -20786049.877 -2569578.755 14521170.553 10 0 59649 12600.00000 0 -22293047.956 -3197413.867 11920838.625 10 0 59649 13500.00000 0 -23528474.287 -3596375.788 9088223.922 10 0 59649 14400.00000 0 -24445379.882 -3799145.997 6078436.249 10 0 59649 15300.00000 0 -25006535.909 -3846924.255 2950103.878 10 0 59649 16200.00000 0 -25186005.452 -3787426.382 -235779.285 10 0 59649 17100.00000 0 -24970258.456 -3672603.334 -3417057.927 10 0 59649 18000.00000 0 -24358781.126 -3556180.017 -6531645.711 10 0 59649 18900.00000 0 -23364152.824 -3491120.397 -9518755.909 10 0 59649 19800.00000 0 -22011586.555 -3527128.841 -12320106.205 10 0 59649 20700.00000 0 -20337952.443 -3708296.042 -14881072.100 10 0 59649 21600.00000 0 -18390325.964 -4070991.524 -17151764.767 10 0 59649 22500.00000 0 -16224123.087 -4642093.767 -19088011.095 10 0 59649 23400.00000 0 -13900902.135 -5437634.097 -20652216.100 10 0 59649 24300.00000 0 -11485926.005 -6461912.297 -21814090.804 10 0 59649 25200.00000 0 -9045588.058 -7707121.412 -22551231.922 10 0 59649 26100.00000 0 -6644810.254 -9153497.125 -22849542.997 10 0 59649 27000.00000 0 -4344522.371 -10769984.771 -22703490.153 10 0 59649 27900.00000 0 -2199327.000 -12515395.070 -22116189.070 10 0 59649 28800.00000 0 -255446.534 -14339999.216 -21099323.125 10 0 59649 29700.00000 0 1450964.209 -16187495.718 -19672895.914 10 0 59649 30600.00000 0 2895071.886 -17997266.243 -17864824.377 10 0 59649 31500.00000 0 4064135.537 -19706825.908 -15710381.653 10 0 59649 32400.00000 0 4957765.447 -21254365.856 -13251501.363 10 0 59649 33300.00000 0 5587662.155 -22581282.493 -10535957.381 10 0 59649 34200.00000 0 5976849.285 -23634588.596 -7616435.306 10 0 59649 35100.00000 0 6158434.749 -24369106.736 -4549513.590 10 0 59649 36000.00000 0 6173954.094 -24749354.631 -1394573.702 10 0 59649 36900.00000 0 6071366.747 -24751044.925 1787340.027 10 0 59649 37800.00000 0 5902790.024 -24362137.845 4934689.608 10 0 59649 38700.00000 0 5722066.225 -23583403.595 7986620.024 10 0 59649 39600.00000 0 5582264.822 -22428471.450 10884121.494 10 0 59649 40500.00000 0 5533224.185 -20923363.524 13571156.161 10 0 59649 41400.00000 0 5619235.583 -19105532.070 15995728.656 10 0 59649 42300.00000 0 5876966.251 -17022439.522 18110880.969 10 0 59649 43200.00000 0 6333708.559 -14729738.903 19875593.561 10 0 59649 44100.00000 0 7006029.037 -12289128.550 21255576.161 10 0 59649 45000.00000 0 7898874.720 -9765968.410 22223933.523 10 0 59649 45900.00000 0 9005175.718 -7226754.962 22761693.525 10 0 59649 46800.00000 0 10305962.641 -4736557.760 22858187.139 10 0 59649 47700.00000 0 11770996.411 -2356522.596 22511272.221 10 0 59649 48600.00000 0 13359886.813 -141543.845 21727395.650 10 0 59649 49500.00000 0 15023655.778 1861797.886 20521491.040 10 0 59649 50400.00000 0 16706682.476 3616947.040 18916712.177 10 0 59649 51300.00000 0 18348950.891 5098661.737 16944005.399 10 0 59649 52200.00000 0 19888507.191 6293825.307 14641527.218 10 0 59649 53100.00000 0 21264024.420 7201745.939 12053916.848 10 0 59649 54000.00000 0 22417366.715 7833931.151 9231436.436 10 0 59649 54900.00000 0 23296044.300 8213346.060 6228994.903 10 0 59649 55800.00000 0 23855454.345 8373186.494 3105074.340 10 0 59649 56700.00000 0 24060811.271 8355219.180 -79419.681 10 0 59649 57600.00000 0 23888682.953 8207760.149 -3262360.343 10 0 59649 58500.00000 0 23328065.893 7983378.443 -6381629.263 10 0 59649 59400.00000 0 22380952.298 7736424.441 -9376347.691 10 0 59649 60300.00000 0 21062363.874 7520489.876 -12188083.182 10 0 59649 61200.00000 0 19399850.363 7385909.605 -14762006.098 10 0 59649 62100.00000 0 17432474.002 7377413.246 -17047971.743 10 0 59649 63000.00000 0 15209323.211 7532028.094 -19001505.743 10 0 59649 63900.00000 0 12787619.071 7877323.441 -20584672.687 10 0 59649 64800.00000 0 10230495.199 8430071.336 -21766811.013 10 0 59649 65700.00000 0 7604545.162 9195380.548 -22525120.272 10 0 59649 66600.00000 0 4977240.979 10166339.872 -22845090.228 10 0 59649 67500.00000 0 2414330.879 11324185.030 -22720764.829 10 0 59649 68400.00000 0 -22675.334 12638981.079 -22154837.440 10 0 59649 69300.00000 0 -2278829.335 14070790.492 -21158577.160 10 0 59649 70200.00000 0 -4307780.580 15571276.787 -19751589.287 10 0 59649 71100.00000 0 -6073443.250 17085675.625 -17961416.001 10 0 59649 72000.00000 0 -7551226.971 18555050.159 -15822986.288 10 0 59649 72900.00000 0 -8728782.997 19918736.059 -13377926.652 10 0 59649 73800.00000 0 -9606237.799 21116874.038 -10673746.591 10 0 59649 74700.00000 0 -10195907.151 22092924.426 -7762914.948 10 0 59649 75600.00000 0 -10521505.383 22796059.424 -4701844.985 10 0 59649 76500.00000 0 -10616885.060 23183333.966 -1549807.538 10 0 59649 77400.00000 0 -10524361.514 23221545.397 1632207.180 10 0 59649 78300.00000 0 -10292693.568 22888705.218 4782657.902 10 0 59649 79200.00000 0 -9974805.678 22175062.074 7840629.074 10 0 59649 80100.00000 0 -9625347.053 21083633.697 10746994.339 10 0 59649 81000.00000 0 -9298189.906 19630225.550 13445545.449 10 0 59649 81900.00000 0 -9043971.236 17842934.879 15884066.033 10 0 59649 82800.00000 0 -8907780.693 15761159.851 18015330.597 10 0 59649 83700.00000 0 -8927091.095 13434153.533 19798010.591 10 0 59649 84600.00000 0 -9130018.209 10919180.983 21197470.936 10 0 59649 85500.00000 0 -9533983.092 8279353.946 22186442.171 10 0 59650 0.00000 0 -10144833.830 5581231.097 22745555.471 10 0 59650 900.00000 0 -10956465.266 2892279.787 22863730.185 10 0 59650 1800.00000 0 -11950953.701 278306.468 22538405.054 10 0 59650 2700.00000 0 -13099204.347 -2199043.946 21775608.535 10 0 59650 3600.00000 0 -14362086.148 -4484613.295 20589864.454 10 0 59650 4500.00000 0 -15692009.137 -6531785.171 19003933.403 10 0 59650 5400.00000 0 -17034880.365 -8304183.856 17048392.845 10 0 59650 6300.00000 0 -18332357.969 -9776945.941 14761062.119 10 0 59650 7200.00000 0 -19524309.659 -10937510.634 12186281.816 10 0 59650 8100.00000 0 -20551372.442 -11785894.889 9374060.177 10 0 59650 9000.00000 0 -21357505.195 -12334441.100 6379102.273 10 0 59650 9900.00000 0 -21892425.158 -12607047.500 3259740.750 10 0 59650 10800.00000 0 -22113823.661 -12637913.836 76789.398 10 0 59650 11700.00000 0 -21989265.326 -12469855.870 -3107657.034 10 0 59650 12600.00000 0 -21497688.220 -12152261.197 -6231451.734 10 0 59650 13500.00000 0 -20630439.494 -11738774.641 -9233627.539 10 0 59650 14400.00000 0 -19391801.048 -11284813.384 -12055605.396 10 0 59650 15300.00000 0 -17798981.953 -10845019.414 -14642353.895 10 0 59650 16200.00000 0 -15881577.397 -10470759.447 -16943475.592 10 0 59650 17100.00000 0 -13680517.040 -10207780.216 -18914197.614 10 0 59650 18000.00000 0 -11246547.611 -10094119.845 -20516246.445 10 0 59650 18900.00000 0 -8638314.357 -10158364.564 -21718589.726 10 0 59650 19800.00000 0 -5920122.670 -10418324.690 -22498031.026 10 0 59650 20700.00000 0 -3159474.532 -10880185.379 -22839646.908 10 0 59650 21600.00000 0 -424483.134 -11538167.097 -22737059.107 10 0 59650 22500.00000 0 2218726.424 -12374708.861 -22192538.097 10 0 59650 23400.00000 0 4708522.557 -13361165.079 -21216937.641 10 0 59650 24300.00000 0 6990075.632 -14458985.275 -19829463.271 10 0 59650 25200.00000 0 9017375.172 -15621325.825 -18057280.603 10 0 59650 26100.00000 0 10754874.098 -16795025.070 -15934972.359 10 0 59650 27000.00000 0 12178694.279 -17922858.251 -13503855.564 10 0 59650 27900.00000 0 13277346.101 -18945977.527 -10811172.751 10 0 59650 28800.00000 0 14051934.856 -19806434.889 -7909173.215 10 0 59650 29700.00000 0 14515848.139 -20449682.732 -4854102.091 10 0 59650 30600.00000 0 14693939.714 -20826948.061 -1705116.541 10 0 59650 31500.00000 0 14621245.845 -20897381.706 1476850.430 10 0 59650 32400.00000 0 14341289.276 -20629893.423 4630257.307 10 0 59650 33300.00000 0 13904042.673 -20004596.738 7694130.925 10 0 59650 34200.00000 0 13363637.150 -19013803.533 10609231.084 10 0 59650 35100.00000 0 12775911.744 -17662526.803 13319181.634 10 0 59650 36000.00000 0 12195906.062 -15968470.102 15771547.385 10 0 59650 36900.00000 0 11675400.508 -13961503.147 17918837.199 10 0 59650 37800.00000 0 11260606.490 -11682643.928 19719414.993 10 0 59650 38700.00000 0 10990102.910 -9182587.712 21138301.976 10 0 59650 39600.00000 0 10893105.203 -6519841.867 22147855.187 10 0 59650 40500.00000 0 10988139.732 -3758541.548 22728309.494 10 0 59650 41400.00000 0 11282179.890 -966034.400 22868172.396 10 0 59650 42300.00000 0 11770281.428 1789667.612 22564463.303 10 0 59650 43200.00000 0 12435734.101 4442465.486 21822791.587 10 0 59650 44100.00000 0 13250725.369 6930673.942 20657270.362 10 0 59650 45000.00000 0 14177490.566 9199342.532 19090265.858 10 0 59650 45900.00000 0 15169903.315 11202300.784 17151985.292 10 0 59650 46800.00000 0 16175441.174 12903841.903 14879909.269 10 0 59650 47700.00000 0 17137444.976 14279973.985 12318078.008 10 0 59650 48600.00000 0 17997577.236 15319185.517 9516243.927 10 0 59650 49500.00000 0 18698375.688 16022692.191 6528906.156 10 0 59650 50400.00000 0 19185793.110 16404153.890 3414245.657 10 0 59650 51300.00000 0 19411614.487 16488873.488 232982.082 10 0 59650 52200.00000 0 19335647.156 16312511.477 -2952824.322 10 0 59650 53100.00000 0 18927588.956 15919371.504 -6081000.747 10 0 59650 54000.00000 0 18168493.050 15360330.713 -9090493.984 10 0 59650 54900.00000 0 17051765.394 14690504.319 -11922580.608 10 0 59650 55800.00000 0 15583651.140 13966745.417 -14522029.508 10 0 59650 56700.00000 0 13783188.414 13245088.053 -16838192.360 10 0 59650 57600.00000 0 11681630.958 12578243.818 -18825999.472 10 0 59650 58500.00000 0 9321364.127 12013259.471 -20446840.734 10 0 59650 59400.00000 0 6754360.294 11589435.678 -21669314.343 10 0 59650 60300.00000 0 4040239.185 11336595.156 -22469829.105 10 0 59650 61200.00000 0 1244015.230 11273773.031 -22833049.442 10 0 59650 62100.00000 0 -1566373.368 11408383.709 -22752175.763 10 0 59650 63000.00000 0 -4322650.516 11735897.967 -22229056.281 10 0 59650 63900.00000 0 -6958795.453 12240042.151 -21274129.765 10 0 59650 64800.00000 0 -9413536.206 12893509.277 -19906201.971 10 0 59650 65700.00000 0 -11632640.945 13659150.391 -18152061.566 10 0 59650 66600.00000 0 -13570913.733 14491594.619 -16045944.258 10 0 59650 67500.00000 0 -15193814.066 15339228.686 -13628856.499 10 0 59650 68400.00000 0 -16478635.374 16146452.056 -10947772.465 10 0 59650 69300.00000 0 -17415196.110 16856112.720 -8054720.259 10 0 59650 70200.00000 0 -18006017.308 17412021.472 -5005775.039 10 0 59650 71100.00000 0 -18265981.662 17761439.624 -1859978.261 10 0 59650 72000.00000 0 -18221490.364 17857436.428 1321796.467 10 0 59650 72900.00000 0 -17909154.579 17661018.051 4478009.727 10 0 59650 73800.00000 0 -17374077.312 17142939.544 7547633.236 10 0 59650 74700.00000 0 -16667798.052 16285124.317 10471315.570 10 0 59650 75600.00000 0 -15845986.224 15081631.837 13192515.395 10 0 59650 76500.00000 0 -14965979.568 13539132.669 15658581.493 10 0 59650 77400.00000 0 -14084269.807 11676870.171 17821759.873 10 0 59650 78300.00000 0 -13254040.006 9526108.993 19640109.653 10 0 59650 79200.00000 0 -12522855.890 7129091.397 21078310.935 10 0 59650 80100.00000 0 -11930607.183 4537542.530 22108349.658 10 0 59650 81000.00000 0 -11507784.881 1810784.169 22710066.480 10 0 59650 81900.00000 0 -11274166.803 -986467.441 22871558.941 10 0 59650 82800.00000 0 -11237967.187 -3786530.730 22589428.446 10 0 59650 83700.00000 0 -11395487.175 -6521316.361 21868866.238 10 0 59650 84600.00000 0 -11731282.439 -9124908.877 20723575.182 10 0 59650 85500.00000 0 -12218842.779 -11536066.230 19175527.103 99